Showing default

TEMPSAT 1, 1512

Orbit data source: Space-Track

TEMPSAT 1, 1512 is a payload satellite owned by NRL (US) in LEO that was launched on Fri, 13 Aug 1965 UTC via a THOR ABLESTAR launch vehicle from the Air Force Western Test Range (AFWTR). Payload-class satellites include a variety of spacecraft equipped with specific instruments for various scientific and technological missions. These include communications satellites like Starlink; space stations such as the ISS; scientific satellites like the Hubble; Earth observation satellites from companies like Planet Labs, Umbra, and HawkEye 360; GPS; miniature CubeSats for education and research; and military/defense satellites.

Loading next visibility...
Identifier
1512, 1965-065E
Orbit
LEO
Country
Flag of USUS
Related business
Manufacturer
NRL
Mission
Operational spacecraft
Bus & Motor
NRL 14", Unknown motor
Mass
9 kg wet, 9 kg dry
Launch date (UTC)
1965-08-13 (61 years ago)
Launch vehicle
THOR ABLESTAR
Launch site
Air Force Western Test Range (AFWTR)
Object type
Payload
Rocket body
Debris
Shape & HBR
SPHERE, 0.2 m
Radar Cross Section
Medium (>0.1 m² and <1 m²)

Expand to show TLE details & history
Last TLE update: 17 hours ago

TLE from 17 hours ago
0 TEMPSAT 1
1 01512U 65065E   26236.43282847  .00000036  00000-0  53885-4 0  9990
2 01512  90.0018 212.5998 0071478  57.8807  95.3773 13.33597370969141
Epoch: 2026-08-24T10:23Z
TLE epoch observation values (Epoch: 2026-08-24T10:23:16.379Z)
Latitude
25.95717°
Longitude
-95.93218°
Altitude
1,141.825 km
Speed
7.282 km/s
True Right ascension
02h 10m 24s
True Declination
25° 49' 44"
Sunlit
Object was in daylight at epoch
Visualization orbit readout
Latitude
Unknown
Longitude
Unknown
Altitude
Unknown
Speed
Unknown
Apparent Right ascension
Unknown
Apparent Declination
Unknown
Sunlit
N/A
Visualization observer readout
Local Sidereal Time
18:56:24
Azimuth
Unknown
Elevation
Unknown
Doppler factor
Unknown
Orbital elements
Apogee altitude
1,183.967 km
Perigee altitude
1,076.63 km
Semi-major axis
7,508.435 km
Eccentricity
0.00715
Inclination
90.0018°
RAAN
212.5998°
Arg. of periapsis
57.8807°
True anomaly
96.19206°
Mean anomaly
95.3773°
Eccentric anomaly
95.78475°
Mean motion
3.33595 °/min
Orbital period
107.92 mins
BSTAR
0.000053885
Loading maneuver chart data...
Computing Atmospheric mass density...

Documentation

Showing up to 5 results
|